Regional Weather Roundup
Issued by NWS Upton, NY

Current Version | Previous Version | Text Only | Print | Product List | Glossary On
Versions: 1 2 3 4 5 6 7 8 9 10 11 12 13 14 15 16 17 18 19 20 21 22 23 24 25 26 27 28 29 30 31 32 33 34 35 36 37 38 39 40 41 42 43 44 45 46 47 48 49 50
000
ASUS41 KOKX 280605
RWROKX

REGIONAL WEATHER ROUNDUP
NATIONAL WEATHER SERVICE NEW YORK NY
100 AM EST SAT FEB 28 2015

NOTE: "FAIR" INDICATES FEW OR NO CLOUDS BELOW 12,000 FEET WITH NO
SIGNIFICANT WEATHER AND/OR OBSTRUCTIONS TO VISIBILITY.

NYZ071-072-176-178-NJZ106-104-280700-
NEW YORK CITY METRO AREA


CITY           SKY/WX    TMP DP  RH WIND       PRES   REMARKS
CENTRAL PARK   CLEAR     19  -3  38 MISG      30.66R
LAGUARDIA APRT CLEAR     20  -2  38 NW18      30.64R WCI   5
KENNEDY INTL   CLEAR     21  -2  36 NW13      30.65R WCI   9
NEWARK/LIBERTY CLEAR     19   1  45 N7        30.65R WCI  10
BRNX BOT. GARD   N/A    N/A N/A N/A NW10      30.66R
TETERBORO      CLEAR     17  -3  41 NW5       30.65R WCI  10
$$

NYZ177-179-078>081-280700-
LONG ISLAND NEW YORK

CITY           SKY/WX    TMP DP  RH WIND       PRES   REMARKS
FARMINGDALE    CLEAR     20  -1  40 N9        30.63R WCI   9
ISLIP          CLEAR     19   5  54 N10       30.61R WCI   7
SHIRLEY        CLEAR     17   3  54 N10       30.63R WCI   5
WESTHAMPTON    CLEAR     10   0  63 N9        30.63R WCI  -3
MONTAUK POINT    N/A     21   5  50 NW14G21   30.60R WCI   8
$$

NYZ052-065-067-280700-
HUDSON VALLEY

CITY           SKY/WX    TMP DP  RH WIND       PRES   REMARKS
WHITE PLAINS   CLEAR     15  -4  42 NW7       30.60R WCI   5
NEWBURGH       NOT AVBL
MONTGOMERY     CLEAR     13  -6  42 W8        30.62R WCI   2
POUGHKEEPSIE   CLEAR      4  -3  73 CALM      30.65R
ALBANY         PTCLDY     4  -5  66 CALM      30.65R
$$

NJZ001-105-106-008-010-013-015-019>022-104-280700-
NEW JERSEY

CITY           SKY/WX    TMP DP  RH WIND       PRES   REMARKS
NEWARK/LIBERTY CLEAR     19   1  45 N7        30.65R WCI  10
TETERBORO      CLEAR     17  -3  41 NW5       30.65R WCI  10
CALDWELL       CLEAR     15  -5  40 NW3       30.66R
MORRISTOWN     CLEAR     18  -4  38 NW6       30.65R WCI   9
SOMERVILLE     CLEAR     10   0  63 CALM      30.65R
SUSSEX         CLEAR      3  -6  66 CALM      30.64R
ANDOVER          N/A     11  -4  51 N6        30.63R WCI   1
TRENTON        CLEAR     16   1  51 N5        30.63R WCI   9
MILLVILLE      CLEAR     21   6  52 NW5       30.64R WCI  15
ATLANTIC CITY  CLEAR     18   6  59 NW5       30.64R WCI  11
WRIGHTSTOWN    CLEAR     18   3  52 NW5       30.62R WCI  11
TOMS RIVER     CLEAR     12  10  92 NW5       30.64R WCI   4
BELMAR         CLEAR     18   1  49 NW6       30.62R WCI   9
$$

PAZ047>061-062-071-280700-
EASTERN PENNSYLVANIA

CITY           SKY/WX    TMP DP  RH WIND       PRES   REMARKS
PHILADELPHIA   CLEAR     22   5  48 NW8       30.67R WCI  12
ALLENTOWN      CLEAR     12  -4  48 CALM      30.65R
SCRANTON       CLEAR     10  -3  55 N3        30.62R
$$

CTZ002-004>006-009-010-012-RIZ004-006-007-MAZ004-011-015-280700-
SOUTHERN NEW ENGLAND
 IN CT

CITY           SKY/WX    TMP DP  RH WIND       PRES   REMARKS
BRADLEY INTL   CLEAR     13  -3  49 NW5       30.61R WCI   5
HARTFORD       CLEAR     14  -2  49 VRB5      30.64R WCI   6
DANBURY        CLEAR      2  -5  72 CALM      30.61R
WTRBRY/OXFORD  CLEAR     10  -6  48 NW3       30.57R
BRIDGEPORT     CLEAR     16   1  51 NW8       30.63R WCI   5
MERIDEN        CLEAR     13  -1  54 NW5       30.63R WCI   5
NEW HAVEN      CLEAR     16   0  49 N8        30.62R WCI   5
CHESTER        FAIR      16   0  48 N9        30.58R WCI   4
GROTON         CLEAR     15   0  51 NW13      30.60R WCI   1
WILLIMANTIC    CLEAR     12  -2  53 CALM      30.59R

 IN RI

CITY           SKY/WX    TMP DP  RH WIND       PRES   REMARKS
PROVIDENCE     CLEAR     15  -2  46 NW6       30.57R WCI   6
BLOCK ISLAND   CLEAR     19   3  49 N13G22    30.55R WCI   7
WESTERLY       CLEAR     16  -1  47 NW6       30.59R WCI   7

 IN MA

CITY           SKY/WX    TMP DP  RH WIND       PRES   REMARKS
BOSTON         CLEAR     17   0  47 NW12      30.56R WCI   4
WORCESTER      CLEAR     10  -3  55 W12       30.49R WCI  -5
WESTFIELD      CLEAR     12  -3  51 NW7       30.59R WCI   1
PROVINCETOWN   CLEAR     25   3  39 NW15      30.54R WCI  12
NANTUCKET      CLEAR     21   9  59 NW9       30.53R WCI  11
$$

ANZ330-335-338-340-345-350-353-355-280700-
COASTAL MARINE OBSERVATIONS


STATION/POSITION TIME  SKY/WX   TEMP    WIND        PRES    VSBY  WAVE
                                AIR SEA DIR/SP/G                  HT/PER
                 (UTC)          (F)     (DEG/KT/KT) (MB)    (MI)  (FT/S)
NY HARB ENTRANCE 0600            25 38  340/ 17/ 19 1036.7          4/10
4S FIRE IS       NOT AVBL
20S FIRE ISLAND  0500               36              1036.2          5/10
23SW MTP         0600                                 N/A           4/10
HUDSON CANYON    NOT AVBL
EXECUTION ROCKS  NOT AVBL
WESTERN LI SOUND NOT AVBL
CENTRAL LI SOUND NOT AVBL
EASTERN LI SOUND NOT AVBL
ROBBINS REEF     0500            20     340/  7/ 10 1036.5
$$


>>>>>>>>>>>>>>>>>>>>>>>>>>>> KEY <<<<<<<<<<<<<<<<<<<<<<<<<<<
>                                                          <
>     SKY/WX - SKY CONDITION/PRESENT WEATHER               <
>     TMP    - TEMPERATURE IN FAHRENHEIT                   <
>     DP     - DEWPOINT IN FAHRENHEIT                      <
>     RH     - RELATIVE HUMIDITY IN PERCENT                <
>     WIND   - DIRECTION AND SPEED IN MPH                  <
>     PRES   - MEAN SEA LEVEL PRESSURE IN INCHES OF HG     <
>     WCI    - WIND CHILL INDEX                            <
>     VSB    - VISIBILITY IN MILES                         <
>     HX     - HEAT INDEX                                  <
>     TC     - TEMPERATURE IN CELSIUS                      <
>     VRB    - VARIABLE WIND DIRECTION                     <
>                                                          <
>>>>>>>>>>>>>>>>>>>>>>>>>>>> KEY <<<<<<<<<<<<<<<<<<<<<<<<<<<




USA.gov is the U.S. government's official web portal to all federal, state and local government web resources and services.